DJ3OW-13 Weather Reports


Display with metric or nautical units.
time (UTC)temp
F
wind
direction
speed
MPH
gust
MPH
rain 1hr
in
rain 24hr
in
rain mn
in
humidity
%
barometer
mb
20260502123017 78 89 2.0 6.0 0.00 0.00 0.00 35 1021.8
20260502122015 78 293 2.0 8.0 0.00 0.00 0.00 38 1021.9
20260502121113 78 201 2.0 4.0 0.00 0.00 0.00 38 1022.0
20260502120111 77 322 2.0 6.0 0.00 0.00 0.00 38 1022.1
20260502115129 77 73 1.0 6.0 0.00 0.00 0.00 39 1022.3
20260502114107 76 9 2.0 6.0 0.00 0.00 0.00 39 1022.5
20260502113105 75 312 3.0 6.0 0.00 0.00 0.00 40 1022.6
20260502112103 75 303 2.0 11.0 0.00 0.00 0.00 40 1022.8
20260502111101 75 227 2.0 4.0 0.00 0.00 0.00 42 1022.9
20260502110059 75 191 2.0 8.0 0.00 0.00 0.00 41 1023.1
20260502105057 74 188 1.0 4.0 0.00 0.00 0.00 42 1023.1
20260502104055 74 174 2.0 4.0 0.00 0.00 0.00 42 1023.0
20260502103053 73 151 2.0 6.0 0.00 0.00 0.00 44 1023.2
20260502102050 72 209 2.0 6.0 0.00 0.00 0.00 43 1023.3
20260502101048 72 123 1.0 4.0 0.00 0.00 0.00 44 1023.6
20260502091037 69 227 3.0 7.0 0.00 0.00 0.00 46 1024.0
20260502071112 59 193 1.0 4.0 0.00 0.00 0.00 64 1024.2
20260502070110 58 180 1.0 4.0 0.00 0.00 0.00 65 1024.3
20260502065108 57 173 1.0 2.0 0.00 0.00 0.00 66 1024.4
20260502064106 57 171 1.0 4.0 0.00 0.00 0.00 67 1024.2
20260502063104 56 158 1.0 2.0 0.00 0.00 0.00 69 1024.3
20260502062102 55 158 0.0 2.0 0.00 0.00 0.00 70 1024.4
20260502061100 54 158 0.0 2.0 0.00 0.00 0.00 71 1024.3
20260502060058 53 158 0.0 2.0 0.00 0.00 0.00 73 1024.3
20260502055056 52 158 0.0 2.0 0.00 0.00 0.00 74 1024.4
20260502054054 52 158 0.0 2.0 0.00 0.00 0.00 74 1024.4
20260502053052 51 158 1.0 2.0 0.00 0.00 0.00 74 1024.4
20260502052050 51 158 1.0 2.0 0.00 0.00 0.00 75 1024.4
20260502051048 50 158 1.0 2.0 0.00 0.00 0.00 75 1024.3
20260502050046 50 149 2.0 4.0 0.00 0.00 0.00 75 1024.3
20260502045044 50 158 1.0 4.0 0.00 0.00 0.00 75 1024.4
20260502044042 50 151 2.0 4.0 0.00 0.00 0.00 74 1024.4
20260502043040 50 146 2.0 4.0 0.00 0.00 0.00 75 1024.3
20260502042038 50 135 2.0 4.0 0.00 0.00 0.00 75 1024.4
20260502041036 50 149 1.0 2.0 0.00 0.00 0.00 74 1024.3
20260502040034 50 138 2.0 4.0 0.00 0.00 0.00 74 1024.5
20260502035032 50 158 1.0 2.0 0.00 0.00 0.00 74 1024.5
20260502034030 50 151 1.0 2.0 0.00 0.00 0.00 75 1024.7
20260502033028 50 158 1.0 2.0 0.00 0.00 0.00 74 1024.6
20260502032046 50 154 2.0 2.0 0.00 0.00 0.00 74 1024.7
20260502031024 51 153 1.0 2.0 0.00 0.00 0.00 73 1024.7
20260502030022 51 158 1.0 2.0 0.00 0.00 0.00 73 1024.8
20260502025020 51 158 1.0 2.0 0.00 0.00 0.00 73 1024.9
20260502024038 51 158 1.0 2.0 0.00 0.00 0.00 72 1024.9
20260502023016 52 158 1.0 2.0 0.00 0.00 0.00 71 1025.0
20260502022114 52 142 2.0 4.0 0.00 0.00 0.00 71 1025.0
20260502021112 52 142 2.0 2.0 0.00 0.00 0.00 70 1025.1
20260502020110 53 135 1.0 2.0 0.00 0.00 0.00 70 1025.2
20260502015108 52 149 1.0 2.0 0.00 0.00 0.00 70 1025.3
20260502014106 52 152 1.0 2.0 0.00 0.00 0.00 70 1025.4
20260502013104 52 158 1.0 2.0 0.00 0.00 0.00 70 1025.5
20260502012102 53 158 1.0 2.0 0.00 0.00 0.00 70 1025.5
20260502011100 53 158 0.0 2.0 0.00 0.00 0.00 70 1025.7
20260502010058 53 158 1.0 2.0 0.00 0.00 0.00 69 1025.6
20260502005056 54 158 0.0 2.0 0.00 0.00 0.00 68 1025.9
20260502004114 54 158 0.0 2.0 0.00 0.00 0.00 67 1026.0
20260502003052 53 158 1.0 2.0 0.00 0.00 0.00 69 1025.8
20260502002050 53 158 0.0 2.0 0.00 0.00 0.00 69 1026.0
20260502001108 54 158 1.0 2.0 0.00 0.00 0.00 67 1025.9
20260502000106 54 158 1.0 2.0 0.00 0.00 0.00 67 1026.0
20260501235104 54 0.0 2.0 0.00 0.00 0.00 67 1025.9
20260501234041 55 0.0 2.0 0.00 0.00 0.00 67 1026.1
20260501233039 55 135 0.0 2.0 0.00 0.00 0.00 66 1026.2
20260501232037 55 135 0.0 2.0 0.00 0.00 0.00 67 1026.4
20260501231035 56 90 2.0 2.0 0.00 0.00 0.00 65 1027.0
20260501230053 56 90 1.0 4.0 0.00 0.00 0.00 65 1026.4
20260501225032 56 90 1.0 2.0 0.00 0.00 0.00 64 1026.5
20260501224029 56 0 1.0 2.0 0.00 0.00 0.00 65 1026.6
20260501223027 56 23 0.0 2.0 0.00 0.00 0.00 65 1026.6
20260501222025 56 0.0 2.0 0.00 0.00 0.00 65 1026.6
20260501221043 56 0.0 0.0 0.00 0.00 0.00 65 1026.5
20260501220021 56 0.0 2.0 0.00 0.00 0.00 64 1026.7
20260501215049 56 113 1.0 2.0 0.00 0.00 0.00 64 1026.4
20260501214107 57 113 1.0 2.0 0.00 0.00 0.00 63 1026.5
20260501213045 57 113 0.0 2.0 0.00 0.00 0.00 62 1026.5
20260501212103 56 113 0.0 2.0 0.00 0.00 0.00 64 1026.5
20260501211101 55 0.0 2.0 0.00 0.00 0.00 67 1026.5
20260501210039 0 0.0 0.0 0.00 0.00 0.00 1030.8
20260501205037 57 113 2.0 2.0 0.00 0.00 0.00 64 1027.3
20260501204035 56 113 1.0 2.0 0.00 0.00 0.00 65 1026.7
20260501203053 55 0.0 0.0 0.00 0.00 0.00 70 1026.6
20260501202031 55 0.0 0.0 0.00 0.00 0.00 70 1026.7
20260501201029 56 0.0 0.0 0.00 0.00 0.00 68 1026.8
20260501200027 57 0.0 0.0 0.00 0.00 0.00 66 1026.8
20260501195025 58 0.0 0.0 0.00 0.00 0.00 63 1026.8
20260501194023 60 0.0 0.0 0.00 0.00 0.00 60 1027.1
20260501193021 61 113 0.0 2.0 0.00 0.00 0.00 57 1027.0
20260501192019 61 0.0 0.0 0.00 0.00 0.00 57 1027.1
20260501191057 62 113 0.0 2.0 0.00 0.00 0.00 56 1027.2
20260501190015 62 0.0 0.0 0.00 0.00 0.00 56 1027.2
20260501185133 63 113 0.0 2.0 0.00 0.00 0.00 53 1027.1
20260501184131 64 113 1.0 2.0 0.00 0.00 0.00 51 1027.2
20260501183129 65 90 1.0 2.0 0.00 0.00 0.00 51 1027.2
20260501182107 67 0.0 0.0 0.00 0.00 0.00 47 1027.4
20260501181105 68 90 0.0 2.0 0.00 0.00 0.00 46 1027.4
20260501175101 70 0.0 2.0 0.00 0.00 0.00 41 1027.4
20260501174059 71 90 1.0 2.0 0.00 0.00 0.00 39 1027.4
20260501173057 72 0.0 2.0 0.00 0.00 0.00 39 1029.2
20260501172135 72 0.0 2.0 0.00 0.00 0.00 38 1027.6
20260501171113 71 90 2.0 4.0 0.00 0.00 0.00 38 1027.6
20260501170111 71 76 1.0 4.0 0.00 0.00 0.00 38 1027.8
20260501165049 72 68 1.0 4.0 0.00 0.00 0.00 37 1028.0
20260501164107 74 338 1.0 2.0 0.00 0.00 0.00 36 1028.7
20260501163045 73 338 0.0 2.0 0.00 0.00 0.00 37 1028.2
20260501162103 73 40 3.0 6.0 0.00 0.00 0.00 36 1028.2
20260501161041 72 79 2.0 6.0 0.00 0.00 0.00 34 1028.3
20260501160059 73 76 3.0 7.0 0.00 0.00 0.00 35 1028.3
20260501155117 74 66 1.0 4.0 0.00 0.00 0.00 35 1028.5
20260501154114 73 72 1.0 6.0 0.00 0.00 0.00 35 1028.6
20260501153032 73 81 1.0 4.0 0.00 0.00 0.00 35 1028.8
20260501152030 74 63 1.0 4.0 0.00 0.00 0.00 36 1028.9
20260501151048 73 53 2.0 6.0 0.00 0.00 0.00 36 1029.0
20260501150026 74 42 1.0 7.0 0.00 0.00 0.00 35 1029.0
20260501145124 74 10 2.0 4.0 0.00 0.00 0.00 37 1029.2
20260501144022 74 313 2.0 6.0 0.00 0.00 0.00 36 1029.2
20260501143021 74 342 1.0 6.0 0.00 0.00 0.00 35 1029.2
20260501142019 74 308 1.0 4.0 0.00 0.00 0.00 35 1029.5
20260501141016 73 68 2.0 7.0 0.00 0.00 0.00 36 1029.5
20260501140134 73 4 2.0 4.0 0.00 0.00 0.00 36 1029.6
20260501135112 74 37 1.0 4.0 0.00 0.00 0.00 37 1029.7
20260501134110 73 329 3.0 6.0 0.00 0.00 0.00 36 1029.7